Weather History for Albany, NY

Change the Weather History Date:

Wednesday, March 20, 2013

  Actual Average Record
Temperature  
Mean Temperature 27 °F 36 °F  
Max Temperature 36 °F 46 °F 78 °F (2012)
Min Temperature 17 °F 27 °F 2 °F (1967)
Degree Days  
Heating Degree Days 38 29  
Month to date heating degree days 646 642  
Since 1 July heating degree days 5184 5586  
Cooling Degree Days 0 0  
Month to date cooling degree days 0 0  
Year to date cooling degree days 0 0  
Moisture  
Dew Point 17 °F    
Average Humidity 66    
Maximum Humidity 84    
Minimum Humidity 47    
Precipitation  
Precipitation T in 0.11 in 1.70 in (1990)
Month to date precipitation 2.32 2.01  
Year to date precipitation 5.45 6.80  
Snow  
Snow T in 0.30 in 7.00 in (1944)
Month to date snowfall 19.5 7.7  
Since 1 July snowfall 50.2 54.2  
Snow Depth 6.00 in    
Sea Level Pressure  
Sea Level Pressure 29.80 in    
Wind  
Wind Speed 8 mph (West)    
Max Wind Speed 22 mph    
Max Gust Speed 28 mph    
Visibility 10 miles    
Events      
T = Trace of Precipitation, MM = Missing Value Source: NWS Daily Summary

Daily Weather History Graph

Daily Weather History Graph

Search for Another Location

Airport:

Trip Planner

Search our weather history database for the weather conditions in past years. The results will help you decide how hot, cold, wet, or windy it might be!

Date:

Astronomy

Mar. 20, 2013 Rise Set
Actual Time 6:58 AM EDT 7:07 PM EDT
Civil Twilight 6:29 AM EDT 7:35 PM EDT
Nautical Twilight 5:56 AM EDT 8:09 PM EDT
Astronomical Twilight 5:23 AM EDT 8:42 PM EDT
Moon 12:33 PM EDT (3/20) 2:43 AM EDT (3/20)
Length of Visible Light 13h 06m
Length of Day
12h 09m
First Quarter, 59% of the Moon is Illuminated
Mar 20
First Quarter
Mar 27
Full
Apr 3
Last Quarter
Apr 10
New
Apr 18
First Quarter

Hourly Weather History & Observations

Time (EDT) Temp. Windchill Dew Point Humidity Pressure Visibility Wind Dir Wind Speed Gust Speed Precip Events Conditions
12:51 AM 26.1 °F 20.5 °F 18.0 °F 71% 29.80 in 10.0 mi West 4.6 mph - N/A   Scattered Clouds
1:51 AM 23.0 °F 17.0 °F 17.1 °F 78% 29.80 in 10.0 mi West 4.6 mph - N/A   Scattered Clouds
2:51 AM 25.0 °F 18.1 °F 17.1 °F 72% 29.80 in 10.0 mi West 5.8 mph - N/A   Mostly Cloudy
3:51 AM 23.0 °F 18.4 °F 16.0 °F 74% 29.79 in 10.0 mi West 3.5 mph - N/A   Partly Cloudy
4:51 AM 23.0 °F 17.0 °F 16.0 °F 74% 29.79 in 10.0 mi West 4.6 mph - N/A   Scattered Clouds
5:51 AM 21.9 °F - 15.1 °F 75% 29.80 in 10.0 mi Calm Calm - N/A   Scattered Clouds
6:51 AM 23.0 °F 15.8 °F 15.1 °F 72% 29.81 in 10.0 mi West 5.8 mph - N/A   Overcast
7:51 AM 25.0 °F 17.1 °F 17.1 °F 72% 29.81 in 10.0 mi WSW 6.9 mph - N/A   Mostly Cloudy
8:51 AM 25.0 °F 14.8 °F 16.0 °F 69% 29.81 in 10.0 mi West 10.4 mph - N/A   Mostly Cloudy
9:51 AM 27.0 °F 16.7 °F 16.0 °F 63% 29.81 in 10.0 mi West 11.5 mph - N/A   Mostly Cloudy
10:51 AM 28.9 °F 16.9 °F 17.1 °F 61% 29.80 in 10.0 mi West 17.3 mph 24.2 mph N/A   Mostly Cloudy
11:51 AM 32.0 °F 22.5 °F 18.0 °F 56% 29.80 in 10.0 mi WSW 12.7 mph 24.2 mph N/A   Mostly Cloudy
12:51 PM 33.1 °F 23.4 °F 17.1 °F 52% 29.80 in 10.0 mi West 13.8 mph - N/A   Mostly Cloudy
1:51 PM 34.0 °F 24.2 °F 17.1 °F 50% 29.79 in 10.0 mi West 15.0 mph - N/A   Mostly Cloudy
2:51 PM 34.0 °F 24.6 °F 18.0 °F 52% 29.78 in 10.0 mi West 13.8 mph - N/A   Mostly Cloudy
3:51 PM 36.0 °F 26.0 °F 17.1 °F 46% 29.78 in 10.0 mi West 17.3 mph 25.3 mph 0.00 in   Mostly Cloudy
4:51 PM 35.1 °F 27.9 °F 19.9 °F 54% 29.79 in 10.0 mi West 9.2 mph - 0.00 in   Mostly Cloudy
5:51 PM 34.0 °F 25.0 °F 16.0 °F 48% 29.79 in 10.0 mi West 12.7 mph - N/A   Mostly Cloudy
6:51 PM 30.9 °F 24.3 °F 21.0 °F 67% 29.81 in 10.0 mi NW 6.9 mph - 0.00 in   Scattered Clouds
7:51 PM 30.0 °F 22.4 °F 19.0 °F 64% 29.81 in 10.0 mi WNW 8.1 mph - N/A   Scattered Clouds
8:51 PM 28.9 °F 21.1 °F 18.0 °F 64% 29.82 in 10.0 mi West 8.1 mph - N/A   Partly Cloudy
9:51 PM 28.0 °F 24.2 °F 17.1 °F 63% 29.82 in 10.0 mi West 3.5 mph - N/A   Partly Cloudy
10:51 PM 21.0 °F 16.2 °F 15.1 °F 78% 29.83 in 10.0 mi WSW 3.5 mph - N/A   Partly Cloudy
11:51 PM 21.0 °F - 17.1 °F 85% 29.83 in 10.0 mi Calm Calm - N/A   Scattered Clouds